Preview of NWS' New Version of Forecast
This preview is not operational and should not be used for support decisions.
Latest weather observations around

Tahlequah, Tahlequah Municipal Airport (KTQH)

Using English Units (Switch to International System of Units)
Date/ Time (CDT) Wind (mph) Vis. (mi) Weather Sky Cond. Temp (°F) Rel. Humidity Wind Chill (°F) Heat Index (°F) Pressure Precip. (in)
Air Dwpt 6 hour Altimeter (inHg) Sea level (inHg) 1 hr 3 hr 6 hr
Max Min
Jun 18 17:35 S 7 10 Clear CLR 86 68     55%   89 29.84        
Jun 18 17:15 SSW 6 10 Partly Cloudy SCT037 86 68     55%   89 29.85        
Jun 18 16:55 S 6 10 Partly Cloudy SCT039 88 68     52%   91 29.86        
Jun 18 16:35 Calm 10 Clear CLR 88 66     49%   90 29.87        
Jun 18 16:15 S 3 10 Clear CLR 86 66     52%   88 29.88        
Jun 18 15:55 Calm 10 Clear CLR 88 66     49%   90 29.89        
Jun 18 15:35 Calm 10 Clear CLR 86 66     52%   88 29.9        
Jun 18 15:15 Calm 10 Partly Cloudy SCT039 86 68     55%   89 29.91        
Jun 18 14:55 WSW 5 10 Clear CLR 86 68     55%   89 29.91        
Jun 18 14:35 Calm 10 Partly Cloudy SCT033 86 66     52%   88 29.92        
Jun 18 14:15 W 5 10 Partly Cloudy SCT033 84 68     58%   87 29.93        
Jun 18 13:55 Calm 10 Partly Cloudy SCT033 SCT040 86 66     52%   88 29.93        
Jun 18 13:35 Calm 10 Partly Cloudy SCT033 88 66     49%   90 29.93        
Jun 18 13:15 WSW 3 10 Partly Cloudy SCT032 SCT040 SCT095 86 66     52%   88 29.93        
Jun 18 12:55 WSW 3 10 Clear CLR 86 68     55%   89 29.94        
Jun 18 12:35 WNW 3 10 Partly Cloudy SCT030 82 66     58%   85 29.95        
Jun 18 12:15 W 3 10 Partly Cloudy SCT030 SCT036 84 68     58%   87 29.95        
Jun 18 11:55 Calm 10 Partly Cloudy SCT030 SCT035 82 66     58%   85 29.95        
Jun 18 11:35 N 3 10 Partly Cloudy SCT028 SCT035 82 66     58%   85 29.94        
Jun 18 11:15 Calm 10 Partly Cloudy SCT026 82 68     62%   85 29.94        
Jun 18 10:55 NNW 3 10 Clear CLR 81 68     66%   83 29.94        
Jun 18 10:35 Calm 10 Clear CLR 81 68     66%   83 29.95        
Jun 18 10:15 Calm 10 Clear CLR 79 68     70%   80 29.94        
Jun 18 09:55 Calm 10 Clear CLR 79 68     70%   80 29.95        
Jun 18 09:35 Calm 10 Clear CLR 79 68     70%   80 29.94        
Jun 18 09:15 Calm 10 Clear CLR 77 68     74%   78 29.95        
Jun 18 08:55 Calm 10 Clear CLR 73 70     89%   75 29.95        
Jun 18 08:35 Calm 10 Clear CLR 72 70     94%   73 29.95        
Jun 18 08:15 Calm 10 Clear CLR 70 70     100%     29.94        
Jun 18 07:55 Calm 10 Clear CLR 70 68     94%     29.94        
Jun 18 07:35 Calm 10 Clear CLR 68 66     94%     29.94        
Jun 18 07:15 Calm 10 Clear CLR 64 64     100%     29.94        
Jun 18 06:55 Calm 10 Clear CLR 63 63     100%     29.94        
Jun 18 06:35 Calm 7 Clear CLR 61 61     100%     29.93        
Jun 18 06:15 Calm 2.5 Fog/Mist CLR 61 61     100%     29.92        
Jun 18 05:55 Calm 10 Clear CLR 61 61     100%     29.93        
Jun 18 05:35 Calm 10 Partly Cloudy SCT001 61 61     100%     29.92        
Jun 18 05:15 Calm 7 Clear CLR 61 61     100%     29.92        
Jun 18 04:55 Calm 10 Clear CLR 61 61     100%     29.93        
Jun 18 04:35 Calm 5 Fog/Mist CLR 61 61     100%     29.91        
Jun 18 04:15 Calm 10 Clear CLR 61 61     100%     29.92        
Jun 18 03:55 Calm 10 Clear CLR 61 61     100%     29.92        
Jun 18 03:35 Calm 10 Clear CLR 61 61     100%     29.93        
Jun 18 03:15 Calm 10 Clear CLR 63 61     94%     29.92        
Jun 18 02:55 Calm 10 Clear CLR 63 61     94%     29.93        
Jun 18 02:35 Calm 10 Clear CLR 63 63     100%     29.94        
Jun 18 02:15 Calm 10 Clear CLR 63 63     100%     29.95        
Jun 18 01:55 Calm 10 Clear CLR 63 63     100%     29.96        
Jun 18 01:35 Calm 10 Clear CLR 63 63     100%     29.96        
Jun 18 01:15 Calm 10 Clear CLR 63 63     100%     29.97        
Jun 18 00:55 Calm 10 Clear CLR 63 63     100%     29.97        
Jun 18 00:35 Calm 5 Fog/Mist CLR 63 63     100%     29.96        
Jun 18 00:15 Calm 10 Clear CLR 63 63     100%     29.96        
Jun 17 23:55 Calm 10 Clear CLR 64 63     94%     29.95        
Jun 17 23:35 Calm 10 Clear CLR 64 64     100%     29.93        
Jun 17 23:15 Calm 10 Clear CLR 64 64     100%     29.93        
Jun 17 22:55 Calm 10 Clear CLR 64 64     100%     29.92        
Jun 17 22:35 Calm 10 Clear CLR 66 64     94%     29.93        
Jun 17 22:15 Calm 10 Clear CLR 66 64     94%     29.92        
Jun 17 21:55 Calm 10 Partly Cloudy SCT075 68 68     100%     29.92        
Jun 17 21:35 Calm 10 Mostly Cloudy BKN075 68 68     100%     29.91        
Jun 17 21:15 Calm 10 Partly Cloudy SCT075 68 68     100%     29.91        
Jun 17 20:55 Calm 10 Clear CLR 70 68     94%     29.9        
Jun 17 20:35 Calm 10 Clear CLR 72 68     88%   73 29.9        
Jun 17 20:15 Calm 10 Clear CLR 75 68     78%   76 29.9        
Jun 17 19:55 Calm 10 Clear CLR 77 66     69%   78 29.89        
Jun 17 19:35 Calm 10 Clear CLR 77 64     65%   77 29.89        
Jun 17 19:15 Calm 10 Clear CLR 75 64     69%   76 29.89        
Jun 17 18:55 Calm 10 Partly Cloudy SCT075 73 68     83%   74 29.89        
Jun 17 18:35 Calm 10 Clear CLR 73 68     83%   74 29.89        
Jun 17 18:15 Calm 10 Clear CLR 73 68     83%   74 29.89        
Jun 17 17:55 Calm 10 Clear CLR 73 70     89%   75 29.89   0    
Jun 17 17:35 Calm 10 Clear CLR 72 70     94%   73 29.9   0    
Jun 17 17:15 Calm 7 Mostly Cloudy BKN006 70 68     94%     29.91   0    
Jun 17 16:55 N 9 7 Cloudy BKN006 BKN032 OVC038 70 68     94%     29.92   0    
Jun 17 16:35 N 10 10 Mostly Cloudy SCT032 BKN038 BKN046 73 66     78%   74 29.93        
Jun 17 16:15 Calm 10 Partly Cloudy SCT048 SCT050 SCT075 77 64     65%   77 29.92        
Jun 17 15:55 Calm 10 Partly Cloudy SCT050 77 64     65%   77 29.92        
Jun 17 15:35 Calm 10 Partly Cloudy SCT050 SCT080 77 64     65%   77 29.92        
Jun 17 15:15 Calm 10 Clear CLR 77 64     65%   77 29.93        
Jun 17 14:55 Calm 10 Clear CLR 77 64     65%   77 29.94        
Jun 17 14:35 SSW 3 10 Partly Cloudy SCT023 77 64     65%   77 29.94        
Jun 17 14:15 SSW 5 10 Partly Cloudy SCT025 77 66     69%   78 29.94        
Jun 17 13:55 Calm 10 Partly Cloudy SCT070 75 64     69%   76 29.94        
Jun 17 13:35 Calm 10 Partly Cloudy SCT034 SCT040 SCT070 75 64     69%   76 29.94        
Jun 17 13:15 S 5 10 Mostly Cloudy SCT018 SCT032 BKN039 77 66     69%   78 29.95        
Jun 17 12:55 Calm 10 Partly Cloudy SCT018 SCT034 SCT041 77 66     69%   78 29.95        
Jun 17 12:35 Calm 10 Partly Cloudy SCT016 SCT022 SCT027 77 64     65%   77 29.95        
Jun 17 12:15 Calm 10 Mostly Cloudy SCT016 SCT025 BKN029 79 66     65%   79 29.95        
Jun 17 11:55 Calm 10 Clear CLR 77 66     69%   78 29.95        
Jun 17 11:35 Calm 10 Clear CLR 75 66     74%   76 29.94        
Jun 17 11:15 Calm 10 Mostly Cloudy BKN013 73 64     73%   74 29.95        
Jun 17 10:55 Calm 10 Cloudy OVC011 72 64     78%   72 29.95        
Jun 17 10:35 Calm 10 Cloudy OVC011 70 64     83%     29.94        
Jun 17 10:15 SSW 3 10 Cloudy OVC009 68 64     88%     29.94        
Jun 17 09:55 Calm 10 Cloudy OVC007 66 64     94%     29.94        
Jun 17 09:35 SE 3 10 Cloudy OVC007 68 64     88%     29.93        
Jun 17 09:15 Calm 10 Cloudy OVC007 68 64     88%     29.93        
Jun 17 08:55 Calm 10 Cloudy OVC007 68 66     94%     29.93        
Jun 17 08:35 Calm 10 Cloudy OVC007 66 66     100%     29.92        
Jun 17 08:15 Calm 10 Cloudy OVC007 64 64     100%     29.92        
Jun 17 07:55 Calm 10 Cloudy OVC007 64 64     100%     29.92   0    
Jun 17 07:35 Calm 10 Cloudy OVC005 64 64     100%     29.92   0    
Jun 17 07:15 Calm 10 Cloudy OVC005 64 64     100%     29.92   0    
Jun 17 06:55 Calm 10 Cloudy OVC005 64 64     100%     29.91   0    
Jun 17 06:35 Calm 10 Cloudy OVC005 64 63     94%     29.91        
Jun 17 06:15 S 5 10 Cloudy OVC005 64 64     100%     29.9        
Jun 17 05:55 Calm 10 Cloudy BKN007 BKN010 OVC015 64 64     100%     29.9        
Jun 17 05:35 SSW 6 10 Cloudy BKN007 OVC012 64 64     100%     29.9        
Jun 17 05:15 S 3 10 Cloudy BKN009 OVC017 64 64     100%     29.89        
Jun 17 04:55 S 3 7 Cloudy OVC006 64 64     100%     29.89   0    
Jun 17 04:35 Calm 10 Cloudy OVC006 66 64     94%     29.89   0    
Jun 17 04:15 Calm 10 Cloudy OVC006 66 64     94%     29.89   0    
Jun 17 03:55 Calm 10 Cloudy SCT006 OVC016 66 64     94%     29.89        
Jun 17 03:35 Calm 10 Cloudy OVC016 66 64     94%     29.87        
Jun 17 03:15 Calm 10 Mostly Cloudy BKN018 66 64     94%     29.87        
Jun 17 02:55 Calm 10 Mostly Cloudy BKN020 68 64     88%     29.87        
Jun 17 02:35 Calm 10 Partly Cloudy SCT020 68 66     94%     29.88        
Jun 17 02:15 Calm 10 Mostly Cloudy BKN018 68 64     88%     29.87        
Jun 17 01:55 Calm 10 Mostly Cloudy BKN018 BKN041 68 64     88%     29.89        
Jun 17 01:35 Calm 10 Clear   68 64     88%     29.89        
Jun 17 01:15 Calm 10 Clear   68 64     88%     29.88        
Jun 17 00:55 Calm 10 Clear   68 64     88%     29.87        
Jun 17 00:35 Calm 10 Partly Cloudy SCT021 68 64     88%     29.89        
Jun 17 00:15 Calm 10 Clear CLR 68 64     88%     29.89        
Jun 16 23:55 Calm 10 Clear CLR 68 64     88%     29.88        
Jun 16 23:35 S 3 10 Partly Cloudy SCT022 68 64     88%     29.88        
Jun 16 23:15 Calm 10 Mostly Cloudy SCT022 BKN032 68 64     88%     29.88        
Jun 16 22:55 Calm 10 Partly Cloudy SCT032 68 66     94%     29.87        
Jun 16 22:35 Calm 10 Mostly Cloudy SCT017 SCT023 BKN040 68 66     94%     29.86        
Jun 16 22:15 Calm 10 Cloudy SCT017 OVC030 68 66     94%     29.87        
Jun 16 21:55 Calm 10 Cloudy SCT019 OVC027 68 66     94%     29.87        
Jun 16 21:35 Calm 10 Cloudy SCT004 BKN021 OVC029 70 66     88%     29.87        
Jun 16 21:15 Calm 10 Mostly Cloudy SCT023 BKN035 70 68     94%     29.87        
Jun 16 20:55 Calm 10 Mostly Cloudy SCT016 SCT025 BKN033 70 68     94%     29.87   0    
Jun 16 20:35 SSE 9 10 Cloudy SCT006 BKN025 OVC042 72 66     83%   72 29.87   0    
Jun 16 20:15 SW 8 10 Mostly Cloudy SCT025 SCT030 BKN038 73 66     78%   74 29.86        
Jun 16 19:55 SSW 8 10 Clear CLR 73 66     78%   74 29.84        
Jun 16 19:35 SSW 6 10 Clear CLR 75 68     78%   76 29.84        
Jun 16 19:15 SSW 6 10 Partly Cloudy SCT037 SCT045 SCT060 77 68     74%   78 29.85        
Jun 16 18:55 SSW 6 10 Partly Cloudy SCT035 SCT048 77 68     74%   78 29.84        
Jun 16 18:35 S 3 10 Partly Cloudy SCT037 79 66     65%   79 29.83        
Jun 16 18:15 S 5 10 Partly Cloudy SCT037 SCT047 79 66     65%   79 29.82        
Jun 16 17:55 Calm 10 Clear CLR 81 64     58%   82 29.83        
Jun 16 17:35 SSW 6 10 Partly Cloudy SCT036 SCT042 81 64     58%   82 29.84        
Jun 16 17:15 SSE 7 10 Clear CLR 81 64     58%   82 29.84        
Jun 16 16:55 S 5 10 Partly Cloudy SCT035 SCT042 81 64     58%   82 29.84        
Jun 16 16:35 S 3 10 Partly Cloudy SCT039 SCT044 82 64     55%   84 29.84        
Jun 16 16:15 SSW 6 10 Partly Cloudy SCT039 82 64     55%   84 29.86        
Jun 16 15:55 SSW 6 10 Clear CLR 82 64     55%   84 29.87        
Jun 16 15:35 S 5 10 Clear CLR 82 64     55%   84 29.87        
Jun 16 15:15 SSW 5 10 Partly Cloudy SCT037 SCT045 82 64     55%   84 29.88        
Jun 16 14:55 SW 7 10 Clear CLR 82 64     55%   84 29.89        
Jun 16 14:35 SW 8 10 Clear CLR 84 63     48%   85 29.89        
Jun 16 14:15 WSW 10 10 Clear CLR 82 64     55%   84 29.89        
Jun 16 13:55 SSW 10 10 Clear CLR 84 63     48%   85 29.89        
Jun 16 13:35 WSW 6 10 Clear CLR 82 63     51%   83 29.89        
Jun 16 13:15 W 7 10 Clear CLR 82 64     55%   84 29.9        
Jun 16 12:55 SSW 11 10 Clear CLR 81 64     58%   82 29.9        
Jun 16 12:35 SSW 8 10 Clear CLR 81 63     54%   82 29.91        
Jun 16 12:15 S 9 10 Clear CLR 81 64     58%   82 29.91        
Jun 16 11:55 S 10 10 Clear CLR 79 64     61%   79 29.91        
Jun 16 11:35 S 8 10 Clear CLR 79 64     61%   79 29.91        
Jun 16 11:15 SSW 7 10 Clear CLR 77 64     65%   77 29.91        
Jun 16 10:55 S 8 10 Clear CLR 77 64     65%   77 29.91        
Jun 16 10:35 SSW 9 10 Clear CLR 77 64     65%   77 29.91        
Jun 16 10:15 S 6 10 Clear CLR 75 64     69%   76 29.91        
Jun 16 09:55 SSW 6 10 Clear CLR 75 64     69%   76 29.91        
Jun 16 09:35 S 6 10 Clear CLR 77 64     65%   77 29.91        
Jun 16 09:15 Calm 10 Clear CLR 73 63     69%   74 29.89        
Jun 16 08:55 E 3 10 Clear CLR 72 63     73%   72 29.89        
Jun 16 08:35 E 6 10 Clear CLR 70 63     78%     29.89        
Jun 16 08:15 E 6 10 Clear CLR 68 63     83%     29.85        
Jun 16 07:55 ESE 7 10 Clear CLR 64 63     94%     29.85        
Jun 16 07:35 E 9 10 Clear CLR 64 63     94%     29.83        
Jun 16 07:15   10 Partly Cloudy SCT006 SCT011 63 61     94%     29.81        
Jun 16 06:55 E 13 10 Mostly Cloudy BKN006 BKN011 63 61     94%     29.91   0    
Jun 16 06:35 NE 10 10 Clear CLR 63 63     100%     29.94        
Jun 16 06:15 NE 16 10 Partly Cloudy SCT005 SCT010 SCT110 63 63     100%     29.94        
Jun 16 05:55 NE 15 5 Fog/Mist BKN005 BKN010 BKN015 63 63     100%     29.93   0    
Jun 16 05:35 NNE 10 10 Mostly Cloudy BKN005 BKN010 BKN017 64 63     94%     29.97   0    
Jun 16 05:15 NNW 5 10 Partly Cloudy SCT049 SCT055 SCT070 64 63     94%     29.96        
Jun 16 04:55 SSW 5 10 Mostly Cloudy SCT060 SCT070 BKN080 66 63     88%     29.96        
Jun 16 04:35 WNW 3 10 Partly Cloudy SCT080 66 63     88%     29.92        
Jun 16 04:15 WSW 3 10 Partly Cloudy SCT080 66 63     88%     29.9        
Jun 16 03:55 Calm 10 Clear CLR 66 63     88%     29.87        
Jun 16 03:35 Calm 10 Clear CLR 66 63     88%     29.84        
Jun 16 03:15 WSW 3 10 Clear CLR 68 63     83%     29.83        
Jun 16 02:55 WSW 7 10 Partly Cloudy SCT042 SCT055 70 63     78%     29.82        
Jun 16 02:35 W 15 10 Mostly Cloudy SCT033 BKN042 BKN048 73 63     69%   74 29.83        
Jun 16 02:15 S 8 10 Clear CLR 75 70     83%   76 29.77        
Jun 16 01:55 S 8 10 Clear CLR 73 68     83%   74 29.79        
Jun 16 01:35 SSE 3 10 Clear CLR 73 70     89%   75 29.8        
Jun 16 01:15 SSE 3 10 Clear CLR 73 70     89%   75 29.82        
Jun 16 00:55 Calm 10 Clear CLR 73 70     89%   75 29.84        
Jun 16 00:35 Calm 10 Clear CLR 73 70     89%   75 29.85        
Jun 16 00:15 Calm 10 Clear CLR 73 70     89%   75 29.84        
Jun 15 23:55 Calm 10 Partly Cloudy SCT060 SCT070 73 70     89%   75 29.84        
Jun 15 23:35 Calm 10 Partly Cloudy SCT060 SCT070 73 70     89%   75 29.85        
Jun 15 23:15 Calm 10 Partly Cloudy SCT060 SCT090 73 70     89%   75 29.85        
Jun 15 22:55 Calm 10 Partly Cloudy SCT070 SCT090 75 70     83%   76 29.85        
Jun 15 22:35 Calm 10 Partly Cloudy SCT070 75 70     83%   76 29.85        
Jun 15 22:15 Calm 10 Partly Cloudy SCT070 73 70     89%   75 29.85        
Jun 15 21:55 Calm 10 Clear CLR 73 70     89%   75 29.84        
Jun 15 21:35 Calm 10 Clear CLR 73 72     94%   75 29.82        
Jun 15 21:15 SE 3 10 Clear CLR 73 70     89%   75 29.82        
Jun 15 20:55 ESE 5 10 Clear CLR 75 70     83%   76 29.82        
Jun 15 20:35 SE 3 10 Partly Cloudy SCT037 SCT044 SCT055 77 70     78%   78 29.83        
Jun 15 20:15 Calm 10 Partly Cloudy SCT035 SCT044 SCT055 77 70     78%   78 29.83        
Jun 15 19:55 E 3 10 Partly Cloudy SCT035 SCT042 SCT070 77 70     78%   78 29.84        
Jun 15 19:35 Calm 10 Mostly Cloudy SCT035 BKN042 BKN060 77 72     83%   78 29.84        
Jun 15 19:15 ENE 3 10 Mostly Cloudy BKN035 BKN042 BKN060 79 72     79%   82 29.84        
Jun 15 18:55 Calm 10 Mostly Cloudy BKN035 BKN042 79 72     79%   82 29.84        
Jun 15 18:35 Calm 10 Partly Cloudy SCT033 81 72     74%   85 29.84        
Jun 15 18:15 E 3 10 Mostly Cloudy BKN031 BKN038 BKN048 81 70     70%   84 29.84        
Jun 15 17:55 ESE 3 10 Mostly Cloudy BKN033 BKN048 81 70     70%   84 29.84        
Jun 15 17:35 SE 7 10 Mostly Cloudy BKN031 BKN038 81 70     70%   84 29.84        
Jun 15 17:15 SE 7 10 Mostly Cloudy BKN031 81 70     70%   84 29.84        
Jun 15 16:55 SE 9 10 Partly Cloudy SCT031 82 70     66%   86 29.84        
Jun 15 16:35 S 6 10 Mostly Cloudy BKN031 81 70     70%   84 29.84        
May 15 08:55 Calm 10 Clear CLR 64 63     94%     29.98        
Notice The following observation data may not be complete
May 15 01:15   10 Clear CLR          %              
May 15 00:35 Calm 10 Clear CLR 70 64     83%     29.96        
May 14 23:55 Calm 10 Clear CLR 70 64     83%     29.97        
May 14 12:15 SSW 9 10 Clear CLR 84 64     52%   86 29.99        
May 14 11:15 SSW 8 10 Clear CLR 82 68     62%   85 30        
May 14 05:35 Calm 10 Clear   66 63     88%     29.97        
May 13 22:40 Calm 10 Clear CLR 72 63     73%   72 29.99        
May 13 16:15 SSE 17 10 Clear CLR 86 64     49%   88 29.98        
May 13 14:15 S 10 10 Clear CLR 86 64     49%   88 30.02        
May 13 13:35 SSE 11 10 Clear CLR 86 66     52%   88 30.03        
Notice The following observation data may not be complete
May 13 06:15   10 Clear CLR          %              
May 13 04:55 Calm 10 Clear CLR 63 63     100%     29.99        
May 12 22:55 SE 3 10 Clear CLR 70 63     78%     29.99        
May 12 15:55 S 14 10 Clear   82 64     55%   84 29.96        
May 12 09:35 S 16 10 Clear CLR 73 64     73%   74 29.98        
May 12 04:35 S 8 10 Clear CLR 70 61     73%     29.91        
May 12 01:15 Calm 10 Clear CLR 70 61     73%     29.91        
May 12 00:15 SSE 6 10 Clear CLR 72 61     69%   72 29.9        
May 11 22:55 SSE 6 10 Clear CLR 72 61     69%   72 29.9        
May 11 21:35 SSE 6 10 Clear CLR 73 61     65%   73 29.85        
May 11 15:15   10 Clear CLR 82 61     48%   83 29.85        
May 11 08:35 S 15 10 Clear CLR 72 61     69%   72 29.92        
Jun 12 05:55 SE 6 10 Partly Cloudy SCT020 68 64     88%     29.95        
Jun 12 03:55 SSE 3 10 Clear CLR 70 63     78%     29.94        
Notice The following observation data may not be complete
Jun 11 23:35   10 Clear            %              
Jun 11 19:55 SSE 10 10 Clear CLR 81 64     58%   82 29.9        
Notice The following observation data may not be complete
Jun 11 10:35   10 Partly Cloudy SCT024 SCT030          %              
Notice The following observation data may not be complete
Jun 10 16:35   10 Partly Cloudy SCT039          %              
Jun 10 14:55 S 16 10 Partly Cloudy SCT039 84 66     55%   87 29.91        
Jun 10 13:15 SSE 14 10 Clear CLR 82 64     55%   84 29.91        
Notice The following observation data may not be complete
Jun 10 11:15   10 Clear CLR          %              
Jun 10 10:15 SSE 17 10 Clear CLR 77 59     54%   77 29.93        
Notice The following observation data may not be complete
Jun 10 09:15   10 Clear CLR          %              
Jun 09 16:35 SSE 6 10 Clear   82 57     42%   82 29.91        
Jun 09 09:35 SSE 7 10 Clear CLR 73 59     61%   73 29.98        
Jun 08 22:55 Calm 10 Clear CLR 59 57     94%     29.96        
Jun 08 12:55 Calm 10 Clear CLR 81 52     37%   80 30.04        
Jun 08 08:55 Calm 10 Clear CLR 70 55     60%     30.08        
Jun 08 08:15 ESE 3 10 Clear CLR 64 55     73%     30.06        
Jun 07 23:35 Calm 10 Clear CLR 61 55     82%     30.04        
Jun 07 22:35 Calm 10 Clear CLR 61 55     82%     30.03        
Jun 07 13:55 E 10 10 Clear CLR 81 52     37%   80 30.05        
Jun 07 12:15 ENE 8 10 Clear CLR 79 54     42%   78 30.07        
Jun 07 08:55 ENE 5 10 Clear CLR 66 54     64%     30.05        
Jun 06 15:15 NNE 7 10 Clear CLR 86 61     43%   86 29.9        
Jun 06 12:35 N 8 10 Clear CLR 86 63     46%   87 29.91        
Notice The following observation data may not be complete
Jun 06 07:15   10 Clear CLR          %              
Jun 06 05:15 Calm 0.25 Fog VV002 61 61     100%     29.89        
Notice The following observation data may not be complete
Jun 06 03:35   0.5 Fog VV005          %              
Notice The following observation data may not be complete
Jun 05 20:35   10 Clear CLR          %              
Jun 05 18:15 NE 6 10 Partly Cloudy SCT040 SCT046 SCT050 84 68     58%   87 29.79        
Jun 05 15:55 N 9 10 Partly Cloudy SCT035 84 70     62%   88 29.79